Dallas/Ft Worth, TX

3:43 AM CDT on May 28, 2017 (GMT -0500)
Dallas-Fort Worth International

Weather History for KDFW - November, 2013

Change the Weather History Date:

Tuesday, November 5, 2013

  Actual Average Record
Temperature  
Mean Temperature 66 °F 61 °F  
Max Temperature 71 °F 71 °F 89 °F (2005)
Min Temperature 61 °F 50 °F 26 °F (1991)
Degree Days  
Heating Degree Days 0 6  
Month to date heating degree days 24 27  
Since 1 July heating degree days 68 99  
Cooling Degree Days 1 2  
Month to date cooling degree days 1 10  
Year to date cooling degree days 2913 2733  
Growing Degree Days 14 (Base 50)    
Moisture  
Dew Point 63 °F    
Average Humidity 89    
Maximum Humidity 97    
Minimum Humidity 81    
Precipitation  
Precipitation 0.24 in 0.10 in 2.14 in (2000)
Month to date precipitation 0.81 0.57  
Year to date precipitation 25.33 31.45  
Snow  
Snow 0.00 in 0.00 in 0.00 in ()
Month to date snowfall 0.0 0.0  
Since 1 July snowfall 0.0 0.0  
Since 1 September snowfall 0.0 0.0  
Snow Depth 0.00 in    
Sea Level Pressure  
Sea Level Pressure 29.98 in    
Wind  
Wind Speed 11 mph (SE)    
Max Wind Speed 21 mph    
Max Gust Speed 26 mph    
Visibility 6 miles    
Events Rain    
T = Trace of Precipitation, MM = Missing Value Source: NWS Daily Summary

Daily Weather History Graph

Daily Weather History Graph

Search for Another Location

Airport or City:

Trip Planner

Search our weather history database for the weather conditions in past years. The results will help you decide how hot, cold, wet, or windy it might be!

Date:

Astronomy

Nov. 05, 2013 Rise Set
Actual Time 6:49 AM CST 5:33 PM CST
Civil Twilight 6:24 AM CST 5:59 PM CST
Nautical Twilight 5:54 AM CST 6:28 PM CST
Astronomical Twilight 5:25 AM CST 6:57 PM CST
Moon 9:01 AM CST (11/5) 7:40 PM CST (11/5)
Length of Visible Light 11h 34m
Length of Day
10h 43m
Waxing Crescent, 7% of the Moon is Illuminated
Nov 5
Waxing Crescent
Nov 9
First Quarter
Nov 17
Full
Nov 25
Last Quarter
Dec 2
New

Hourly Weather History & Observations

Time (CST) Temp. Dew Point Humidity Pressure Visibility Wind Dir Wind Speed Gust Speed Precip Events Conditions
12:33 AM 61.0 °F 59.0 °F 93% 30.04 in 2.0 mi ESE 9.2 mph - 0.08 in Rain Rain
12:53 AM 61.0 °F 59.0 °F 93% 30.03 in 2.0 mi ESE 10.4 mph - 0.17 in Rain Rain
1:04 AM 61.0 °F 59.0 °F 93% 30.03 in 5.0 mi ESE 9.2 mph - 0.01 in Rain Light Rain
1:23 AM 61.0 °F 59.0 °F 93% 30.03 in 7.0 mi ESE 9.2 mph - 0.02 in Rain Light Rain
1:53 AM 62.1 °F 59.0 °F 90% 30.00 in 10.0 mi SE 13.8 mph - 0.02 in Rain Light Rain
2:53 AM 62.1 °F 60.1 °F 93% 30.00 in 10.0 mi SE 12.7 mph - 0.00 in   Overcast
3:53 AM 62.1 °F 60.1 °F 93% 30.00 in 9.0 mi SE 11.5 mph - N/A   Overcast
4:41 AM 62.1 °F 60.1 °F 93% 30.01 in 3.0 mi SE 10.4 mph - 0.01 in Rain Light Rain
4:53 AM 62.1 °F 60.1 °F 93% 29.99 in 2.5 mi SE 9.2 mph - 0.02 in Rain Light Rain
5:07 AM 62.1 °F 61.0 °F 96% 30.00 in 1.5 mi ESE 11.5 mph - 0.00 in   Light Drizzle
5:29 AM 62.1 °F 61.0 °F 96% 30.00 in 2.5 mi ESE 11.5 mph - 0.01 in   Light Drizzle
5:40 AM 63.0 °F 61.0 °F 93% 30.00 in 5.0 mi ESE 11.5 mph - 0.01 in   Overcast
5:53 AM 63.0 °F 61.0 °F 93% 29.99 in 4.0 mi SE 12.7 mph - 0.01 in   Overcast
6:36 AM 63.0 °F 61.0 °F 93% 30.01 in 1.0 mi SE 13.8 mph - N/A   Overcast
6:53 AM 63.0 °F 61.0 °F 93% 30.00 in 0.5 mi SE 11.5 mph - 0.00 in   Light Drizzle
7:08 AM 63.0 °F 61.0 °F 93% 30.00 in 1.0 mi ESE 13.8 mph - 0.00 in   Overcast
7:53 AM 63.0 °F 61.0 °F 93% 30.01 in 1.0 mi SE 9.2 mph - 0.00 in   Overcast
8:45 AM 64.0 °F 61.0 °F 90% 30.04 in 2.5 mi SE 11.5 mph - N/A   Overcast
8:53 AM 64.0 °F 62.1 °F 93% 30.02 in 2.5 mi SE 8.1 mph - N/A   Overcast
9:25 AM 64.0 °F 62.1 °F 93% 30.03 in 2.5 mi SE 15.0 mph - N/A   Overcast
9:53 AM 66.0 °F 63.0 °F 90% 30.01 in 2.5 mi SSE 15.0 mph - N/A   Overcast
10:21 AM 66.9 °F 63.0 °F 87% 30.03 in 4.0 mi SSE 11.5 mph 20.7 mph N/A   Overcast
10:53 AM 68.0 °F 63.0 °F 84% 30.01 in 10.0 mi SSE 11.5 mph - N/A   Overcast
11:09 AM 68.0 °F 63.0 °F 84% 30.01 in 8.0 mi SSE 18.4 mph 25.3 mph N/A   Overcast
11:53 AM 69.1 °F 64.0 °F 84% 29.99 in 9.0 mi SSE 18.4 mph 23.0 mph N/A   Overcast
12:53 PM 68.0 °F 64.0 °F 87% 29.96 in 6.0 mi SSE 16.1 mph - N/A   Overcast
1:08 PM 68.0 °F 64.0 °F 87% 29.97 in 6.0 mi SSE 10.4 mph - N/A   Overcast
1:32 PM 68.0 °F 64.0 °F 87% 29.97 in 7.0 mi South 13.8 mph - N/A   Overcast
1:53 PM 68.0 °F 64.0 °F 87% 29.94 in 6.0 mi SSE 13.8 mph - 0.00 in Rain Light Rain
2:53 PM 68.0 °F 64.9 °F 90% 29.93 in 6.0 mi SSE 8.1 mph - 0.00 in Rain Light Rain
3:03 PM 68.0 °F 64.9 °F 90% 29.95 in 5.0 mi SSE 6.9 mph - 0.01 in Rain Light Rain
3:53 PM 68.0 °F 66.0 °F 93% 29.92 in 6.0 mi SE 6.9 mph - 0.02 in Rain Light Rain
4:29 PM 68.0 °F 66.0 °F 93% 29.93 in 6.0 mi SE 6.9 mph - 0.00 in   Overcast
4:53 PM 68.0 °F 66.0 °F 93% 29.92 in 7.0 mi SSE 9.2 mph - 0.00 in   Overcast
5:01 PM 69.1 °F 66.0 °F 90% 29.93 in 8.0 mi SE 8.1 mph - N/A   Overcast
5:53 PM 68.0 °F 66.0 °F 93% 29.92 in 10.0 mi SE 4.6 mph - N/A   Overcast
6:53 PM 68.0 °F 66.0 °F 93% 29.93 in 9.0 mi SE 8.1 mph - 0.01 in   Overcast
7:45 PM 68.0 °F 66.0 °F 93% 29.94 in 10.0 mi SSE 10.4 mph - N/A   Overcast
7:53 PM 68.0 °F 66.0 °F 93% 29.93 in 10.0 mi SSE 10.4 mph - N/A   Overcast
8:08 PM 68.0 °F 66.0 °F 93% 29.95 in 10.0 mi SSE 9.2 mph - N/A   Overcast
8:24 PM 69.1 °F 66.0 °F 90% 29.95 in 10.0 mi SSE 11.5 mph - N/A   Overcast
8:53 PM 69.1 °F 66.0 °F 90% 29.94 in 10.0 mi South 12.7 mph - N/A   Overcast
9:53 PM 70.0 °F 66.0 °F 87% 29.94 in 10.0 mi South 12.7 mph - N/A   Overcast
9:59 PM 70.0 °F 66.9 °F 90% 29.96 in 10.0 mi South 12.7 mph - N/A   Overcast
10:53 PM 70.0 °F 66.9 °F 90% 29.95 in 10.0 mi South 12.7 mph - N/A   Overcast
11:53 PM 71.1 °F 66.9 °F 87% 29.95 in 10.0 mi South 12.7 mph - N/A   Mostly Cloudy